« Back
NWS Peachtree City, Ga » Text Product » GA Regional Weather Roundup


Printer-friendly Version
Current Version              Previous Versions:   1  2  3  4  5  6  7  8  9  

Regional Weather Roundup

089
ASUS42 KFFC 190003
RWRGA
WEATHER ROUNDUP FOR GEORGIA
NATIONAL WEATHER SERVICE PEACHTREE CITY GA
800 PM EDT FRI APR 18 2014

NOTE: "FAIR" INDICATES FEW OR NO CLOUDS BELOW 12,000 FEET WITH NO
SIGNIFICANT WEATHER AND/OR OBSTRUCTIONS TO VISIBILITY.

* = USE WITH CAUTION. THE STATIONS MARKED WITH AN ASTERISK MAY NOT
REPORT WEATHER SUCH AS PRECIPITATION, FOG, OR THUNDER AND ARE NOT
QUALITY CONTROLLED BY NWS.

THE REMARK "TC" DENOTES TEMPERATURE READING IN DEGREES CELSIUS.

GAZ001>058-190100-
NORTH GEORGIA

CITY           SKY/WX    TMP DP  RH WIND       PRES   REMARKS
ATLANTA        RAIN      50  48  93 NE9       30.16R FOG
6HR MIN TEMP:  50; 6HR MAX TEMP:  54; 6HR PCP:  0.53;

ATHENS         LGT RAIN  49  47  93 NE8       30.15R
6HR MIN TEMP:  49; 6HR MAX TEMP:  56; 6HR PCP:  0.30;

CHAMBLEE       LGT RAIN  48  45  89 NE6       30.17R FOG
6HR MIN TEMP:  48; 6HR MAX TEMP:  52; 6HR PCP:  0.47;

PEACHTREE CITY RAIN      51  49  92 N6        30.16R FOG
6HR MIN TEMP:  51; 6HR MAX TEMP:  53; 6HR PCP:  0.66;

ROME           LGT RAIN  54  53  97 CALM      30.17S
6HR MIN TEMP:  54; 6HR MAX TEMP:  58; 6HR PCP:  0.04;

WEST ATLANTA   RAIN      50  48  93 N6        30.17R FOG
6HR MIN TEMP:  50; 6HR MAX TEMP:  53; 6HR PCP:  0.46;

GAINESVILLE    RAIN      49  46  90 NE12      30.17S FOG
6HR MIN TEMP:  49; 6HR MAX TEMP:  55; 6HR PCP:  0.37;

CARTERSVILLE   LGT RAIN  51  48  89 CALM      30.19R FOG
6HR MIN TEMP:  51; 6HR MAX TEMP:  56; 6HR PCP:  0.33;



CITY           SKY/WX    TMP DP  RH WIND       PRES   REMARKS
DALTON*        DRIZZLE   57  46  67 CALM      30.17S
LAWRENCEVILLE* LGT RAIN  48  43  81 NE12      30.15R FOG
KENNESAW*      RAIN      48  45  87 E3        30.18R FOG
$$

GAZ059>098-102>109-190100-
CENTRAL GEORGIA

CITY           SKY/WX    TMP DP  RH WIND       PRES   REMARKS
AUGUSTA-BUSH   HVY RAIN  53  50  89 NE13      30.13S FOG
6HR MIN TEMP:  53; 6HR MAX TEMP:  55; 6HR PCP:  0.82;

AUGUSTA-DANIEL RAIN      53  50  89 NE18G24   30.13S FOG
6HR MIN TEMP:  53; 6HR MAX TEMP:  56; 6HR PCP:  0.74;

COLUMBUS       RAIN      53  51  93 N9G16     30.09R FOG
6HR MIN TEMP:  53; 6HR MAX TEMP:  55; 6HR PCP:  1.48;

MACON          RAIN      52  51  97 NE14      30.05S FOG
6HR MIN TEMP:  52; 6HR MAX TEMP:  54; 6HR PCP:  0.76;

ROBINS AFB     HVY RAIN  54  52  94 NE7       30.04S FOG


CITY           SKY/WX    TMP DP  RH WIND       PRES   REMARKS
LAGRANGE*      HVY RAIN  52  51  95 NE6       30.14R
SYLVANIA*      HVY RAIN  55  53  91 NE10      30.07F
MILLEDGEVILLE* LGT RAIN  54  54 100 NE5       30.08F
$$

GAZ099>101-110>166-190100-
SOUTH GEORGIA

CITY           SKY/WX    TMP DP  RH WIND       PRES   REMARKS
SAVANNAH       LGT RAIN  57  55  93 N12       30.03F
6HR MIN TEMP:  57; 6HR MAX TEMP:  60; 6HR PCP:  2.11;

VALDOSTA       CLOUDY    61  56  83 NE7       29.92F
6HR MIN TEMP:  61; 6HR MAX TEMP:  63; 6HR PCP:  0.47;

ALMA           RAIN      56  53  90 NE12G23   29.94F FOG
6HR MIN TEMP:  54; 6HR MAX TEMP:  57; 6HR PCP:  1.11;

ST SIMONS      LGT RAIN  61  60  97 NE12      29.96S
6HR MIN TEMP:  60; 6HR MAX TEMP:  64; 6HR PCP:  2.74;

FT STEWART     LGT RAIN  55  55 100 N10       29.98F
ALBANY         RAIN      55  54  96 NW9       30.01R FOG
HUNTER AFB     RAIN      58  58  99 VRB5      29.99F
MOODY AFB      CLOUDY    57  57 100 E10       29.92S
BRUNSWICK      CLOUDY    61  59  94 N9G17     29.96F


CITY           SKY/WX    TMP DP  RH WIND       PRES   REMARKS
BAINBRIDGE*    LGT RAIN  59  57  94 N13       29.97R
MOULTRIE*      CLOUDY    55  55 100 NE7       29.93F
VIDALIA*       LGT RAIN  54  54 100 NE15G26   30.03F
DOUGLAS*       CLOUDY    55  54  94 NE16G24   29.95F
$$



USA.gov is the U.S. government's official web portal to all federal, state and local government web resources and services.